NI4CE-10 Weather Reports


Display with metric or nautical units.
time (UTC)temp
F
wind
direction
speed
MPH
gust
MPH
rain 1hr
in
rain 24hr
in
rain mn
in
humidity
%
barometer
mb
20260509230521 85 240 6.0 8.0 0.00 0.00 0.00 100 1015.2
20260509230420 86 271 8.0 11.0 0.00 0.00 0.00 100 1015.1
20260509230210 86 271 8.0 11.0 0.00 0.00 0.00 100 1015.1
20260509230021 86 271 8.0 11.0 0.00 0.00 0.00 100 1015.1
20260509225521 86 262 9.0 10.0 0.00 0.00 0.00 100 1015.1
20260509225430 86 289 2.0 11.0 0.00 0.00 0.00 100 1015.0
20260509225021 86 289 2.0 11.0 0.00 0.00 0.00 100 1015.0
20260509224604 87 244 10.0 13.0 0.00 0.00 0.00 100 1015.0
20260509224521 87 244 10.0 13.0 0.00 0.00 0.00 100 1015.0
20260509224408 88 248 10.0 12.0 0.00 0.00 0.00 100 1015.0
20260509224149 87 187 1.0 10.0 0.00 0.00 0.00 100 1015.0
20260509224021 87 187 1.0 10.0 0.00 0.00 0.00 100 1015.0
20260509223522 87 223 10.0 13.0 0.00 0.00 0.00 100 1014.9
20260509223022 87 236 10.0 12.0 0.00 0.00 0.00 100 1015.0
20260509222622 88 248 10.0 12.0 0.00 0.00 0.00 100 1015.0
20260509222522 88 248 10.0 12.0 0.00 0.00 0.00 100 1015.0
20260509222149 88 244 2.0 11.0 0.00 0.00 0.00 100 1014.9
20260509222022 88 244 2.0 11.0 0.00 0.00 0.00 100 1014.9
20260509221634 88 281 9.0 11.0 0.00 0.00 0.00 100 1014.9
20260509221522 88 281 9.0 11.0 0.00 0.00 0.00 100 1014.9
20260509221150 89 240 10.0 11.0 0.00 0.00 0.00 100 1014.9
20260509221022 89 240 10.0 11.0 0.00 0.00 0.00 100 1014.9
20260509220522 88 251 6.0 13.0 0.00 0.00 0.00 100 1014.9
20260509220022 88 253 5.0 13.0 0.00 0.00 0.00 100 1014.8
20260509215522 89 254 5.0 14.0 0.00 0.00 0.00 100 1014.7
20260509215022 89 212 0.0 13.0 0.00 0.00 0.00 100 1014.7
20260509214522 90 215 6.0 11.0 0.00 0.00 0.00 100 1014.6
20260509214122 90 257 8.0 12.0 0.00 0.00 0.00 100 1014.6
20260509214022 90 257 8.0 12.0 0.00 0.00 0.00 100 1014.6
20260509213740 90 234 8.0 15.0 0.00 0.00 0.00 100 1014.6
20260509213703 90 234 8.0 15.0 0.00 0.00 0.00 100 1014.6
20260509213522 90 234 8.0 15.0 0.00 0.00 0.00 100 1014.6
20260509213118 91 244 13.0 15.0 0.00 0.00 0.00 100 1014.6
20260509213050 92 225 11.0 14.0 0.00 0.00 0.00 100 1014.5
20260509213022 91 244 13.0 15.0 0.00 0.00 0.00 100 1014.6
20260509212652 91 261 10.0 17.0 0.00 0.00 0.00 100 1014.6
20260509212522 91 261 10.0 17.0 0.00 0.00 0.00 100 1014.6
20260509212022 90 233 6.0 13.0 0.00 0.00 0.00 100 1014.5
20260509211639 90 267 11.0 16.0 0.00 0.00 0.00 100 1014.5
20260509211522 90 267 11.0 16.0 0.00 0.00 0.00 100 1014.5
20260509211022 91 202 9.0 17.0 0.00 0.00 0.00 100 1014.5
20260509210522 92 225 11.0 14.0 0.00 0.00 0.00 100 1014.5
20260509210236 92 267 9.0 15.0 0.00 0.00 0.00 100 1014.6
20260509210022 91 232 5.0 11.0 0.00 0.00 0.00 100 1014.5
20260509205652 92 271 10.0 16.0 0.00 0.00 0.00 100 1014.5
20260509205522 92 271 10.0 16.0 0.00 0.00 0.00 100 1014.5
20260509205022 92 270 6.0 14.0 0.00 0.00 0.00 100 1014.6
20260509204627 93 243 11.0 17.0 0.00 0.00 0.00 100 1014.6
20260509204522 93 243 11.0 17.0 0.00 0.00 0.00 100 1014.6
20260509204121 92 267 9.0 15.0 0.00 0.00 0.00 100 1014.6
20260509204022 92 267 9.0 15.0 0.00 0.00 0.00 100 1014.6
20260509203849 91 246 12.0 17.0 0.00 0.00 0.00 100 1014.7
20260509203647 91 246 12.0 17.0 0.00 0.00 0.00 100 1014.7
20260509203522 91 246 12.0 17.0 0.00 0.00 0.00 100 1014.7
20260509203137 93 205 11.0 14.0 0.00 0.00 0.00 100 1014.7
20260509203102 93 244 4.0 17.0 0.00 0.00 0.00 100 1014.6
20260509203022 93 205 11.0 14.0 0.00 0.00 0.00 100 1014.7
20260509202630 93 244 4.0 17.0 0.00 0.00 0.00 100 1014.6
20260509202523 93 244 4.0 17.0 0.00 0.00 0.00 100 1014.6
20260509202141 93 201 9.0 16.0 0.00 0.00 0.00 100 1014.7
20260509202022 93 201 9.0 16.0 0.00 0.00 0.00 100 1014.7
20260509201639 93 253 10.0 18.0 0.00 0.00 0.00 100 1014.7
20260509201522 93 253 10.0 18.0 0.00 0.00 0.00 100 1014.7
20260509201022 92 232 13.0 16.0 0.00 0.00 0.00 100 1014.8
20260509200522 93 251 11.0 17.0 0.00 0.00 0.00 100 1014.8
20260509200116 94 261 7.0 16.0 0.00 0.00 0.00 100 1014.7
20260509200022 94 261 7.0 16.0 0.00 0.00 0.00 100 1014.7
20260509195522 94 271 8.0 16.0 0.00 0.00 0.00 100 1014.9
20260509195236 94 251 8.0 18.0 0.00 0.00 0.00 100 1014.8
20260509195022 94 251 8.0 18.0 0.00 0.00 0.00 100 1014.8
20260509194522 94 279 6.0 18.0 0.00 0.00 0.00 100 1014.9
20260509194208 92 250 13.0 15.0 0.00 0.00 0.00 100 1015.1
20260509194022 92 250 13.0 15.0 0.00 0.00 0.00 100 1015.1
20260509193522 93 237 10.0 17.0 0.00 0.00 0.00 100 1015.1
20260509193249 93 248 12.0 17.0 0.00 0.00 0.00 100 1015.1
20260509193022 93 248 12.0 17.0 0.00 0.00 0.00 100 1015.1
20260509192654 93 255 9.0 15.0 0.00 0.00 0.00 100 1015.1
20260509192613 94 201 12.0 17.0 0.00 0.00 0.00 100 1015.1
20260509192522 93 255 9.0 15.0 0.00 0.00 0.00 100 1015.1
20260509192248 94 201 12.0 17.0 0.00 0.00 0.00 100 1015.1
20260509192022 94 201 12.0 17.0 0.00 0.00 0.00 100 1015.1
20260509191646 95 236 10.0 17.0 0.00 0.00 0.00 100 1015.2
20260509191522 95 236 10.0 17.0 0.00 0.00 0.00 100 1015.2
20260509191250 95 225 5.0 14.0 0.00 0.00 0.00 100 1015.3
20260509191022 95 225 5.0 14.0 0.00 0.00 0.00 100 1015.3
20260509190522 95 230 7.0 17.0 0.00 0.00 0.00 100 1015.4
20260509190324 94 246 7.0 19.0 0.00 0.00 0.00 100 1015.5
20260509190022 93 265 4.0 19.0 0.00 0.00 0.00 100 1015.6
20260509185749 93 319 5.0 18.0 0.00 0.00 0.00 100 1015.6
20260509185522 93 319 5.0 18.0 0.00 0.00 0.00 100 1015.6
20260509185251 94 225 6.0 13.0 0.00 0.00 0.00 100 1015.6
20260509185022 94 225 6.0 13.0 0.00 0.00 0.00 100 1015.6
20260509184657 94 246 7.0 19.0 0.00 0.00 0.00 100 1015.5
20260509184522 94 246 7.0 19.0 0.00 0.00 0.00 100 1015.5
20260509184239 94 153 7.0 18.0 0.00 0.00 0.00 100 1015.6
20260509184236 94 234 14.0 15.0 0.00 0.00 0.00 100 1015.5
20260509184234 95 247 9.0 14.0 0.00 0.00 0.00 100 1015.5
20260509184022 94 234 14.0 15.0 0.00 0.00 0.00 100 1015.5
20260509183522 94 274 8.0 19.0 0.00 0.00 0.00 100 1015.5
20260509183148 94 217 4.0 16.0 0.00 0.00 0.00 100 1015.6
20260509183022 94 217 4.0 16.0 0.00 0.00 0.00 100 1015.6
20260509182754 94 153 7.0 18.0 0.00 0.00 0.00 100 1015.6
20260509182522 94 153 7.0 18.0 0.00 0.00 0.00 100 1015.6
20260509182150 95 247 9.0 14.0 0.00 0.00 0.00 100 1015.5
20260509182022 95 247 9.0 14.0 0.00 0.00 0.00 100 1015.5
20260509181935 95 258 10.0 19.0 0.00 0.00 0.00 100 1015.6
20260509181631 95 258 10.0 19.0 0.00 0.00 0.00 100 1015.6
20260509181522 95 258 10.0 19.0 0.00 0.00 0.00 100 1015.6
20260509181244 93 195 7.0 16.0 0.00 0.00 0.00 100 1015.6
20260509181022 93 195 7.0 16.0 0.00 0.00 0.00 100 1015.6
20260509180643 94 234 8.0 14.0 0.00 0.00 0.00 100 1015.6
20260509180628 95 237 12.0 18.0 0.00 0.00 0.00 100 1015.5
20260509180548 96 257 8.0 15.0 0.00 0.00 0.00 100 1015.6
20260509180522 94 234 8.0 14.0 0.00 0.00 0.00 100 1015.6
20260509180022 95 237 12.0 18.0 0.00 0.00 0.00 100 1015.5
20260509175522 96 257 8.0 15.0 0.00 0.00 0.00 100 1015.6
20260509175149 95 253 9.0 16.0 0.00 0.00 0.00 100 1015.7
20260509175144 94 199 7.0 15.0 0.00 0.00 0.00 100 1015.7
20260509175022 95 253 9.0 16.0 0.00 0.00 0.00 100 1015.7
20260509174639 94 199 7.0 15.0 0.00 0.00 0.00 100 1015.7
20260509174523 94 199 7.0 15.0 0.00 0.00 0.00 100 1015.7
20260509174154 94 244 8.0 14.0 0.00 0.00 0.00 100 1015.8
20260509174148 93 232 8.0 14.0 0.00 0.00 0.00 100 1015.8
20260509174023 93 232 8.0 14.0 0.00 0.00 0.00 100 1015.8
20260509173523 94 213 10.0 14.0 0.00 0.00 0.00 100 1015.8
20260509173023 94 262 8.0 13.0 0.00 0.00 0.00 100 1015.8
20260509172737 94 244 8.0 14.0 0.00 0.00 0.00 100 1015.8
20260509172705 94 244 8.0 14.0 0.00 0.00 0.00 100 1015.8
20260509172523 94 244 8.0 14.0 0.00 0.00 0.00 100 1015.8
20260509172235 94 243 9.0 17.0 0.00 0.00 0.00 100 1015.7
20260509172023 94 243 9.0 17.0 0.00 0.00 0.00 100 1015.7
20260509171931 93 205 3.0 9.0 0.00 0.00 0.00 100 1015.8
20260509171630 94 281 4.0 13.0 0.00 0.00 0.00 100 1015.8
20260509171523 94 281 4.0 13.0 0.00 0.00 0.00 100 1015.8
20260509171236 93 205 3.0 9.0 0.00 0.00 0.00 100 1015.8
20260509171157 93 205 3.0 9.0 0.00 0.00 0.00 100 1015.8
20260509171023 93 205 3.0 9.0 0.00 0.00 0.00 100 1015.8
20260509170732 92 226 8.0 11.0 0.00 0.00 0.00 100 1016.0
20260509170656 92 226 8.0 11.0 0.00 0.00 0.00 100 1016.0
20260509170652 94 217 9.0 12.0 0.00 0.00 0.00 100 1015.9
20260509170523 92 226 8.0 11.0 0.00 0.00 0.00 100 1016.0
20260509170023 94 217 9.0 12.0 0.00 0.00 0.00 100 1015.9
20260509165523 94 277 6.0 13.0 0.00 0.00 0.00 100 1016.0
20260509165234 93 255 10.0 15.0 0.00 0.00 0.00 100 1016.1
20260509165023 93 255 10.0 15.0 0.00 0.00 0.00 100 1016.1
20260509164523 93 241 15.0 17.0 0.00 0.00 0.00 100 1016.2
20260509164256 92 246 5.0 14.0 0.00 0.00 0.00 100 1016.3
20260509164023 92 246 5.0 14.0 0.00 0.00 0.00 100 1016.3
20260509163523 91 237 7.0 12.0 0.00 0.00 0.00 100 1016.4
20260509163244 92 237 6.0 13.0 0.00 0.00 0.00 100 1016.3
20260509163238 92 206 8.0 16.0 0.00 0.00 0.00 100 1016.4
20260509163023 92 206 8.0 16.0 0.00 0.00 0.00 100 1016.4
20260509162650 92 237 6.0 13.0 0.00 0.00 0.00 100 1016.3
20260509162523 92 237 6.0 13.0 0.00 0.00 0.00 100 1016.3
20260509162144 91 184 5.0 16.0 0.00 0.00 0.00 100 1016.4
20260509162108 91 216 4.0 12.0 0.00 0.00 0.00 100 1016.5
20260509162023 91 184 5.0 16.0 0.00 0.00 0.00 100 1016.4
20260509161523 91 216 4.0 12.0 0.00 0.00 0.00 100 1016.5
20260509161203 92 246 9.0 11.0 0.00 0.00 0.00 100 1016.7
20260509161023 92 194 2.0 9.0 0.00 0.00 0.00 100 1016.6
20260509160523 92 246 9.0 11.0 0.00 0.00 0.00 100 1016.7
20260509160319 91 267 3.0 11.0 0.00 0.00 0.00 100 1016.7
20260509160023 91 206 5.0 12.0 0.00 0.00 0.00 100 1016.8
20260509155724 91 267 3.0 11.0 0.00 0.00 0.00 100 1016.7
20260509155523 91 267 3.0 11.0 0.00 0.00 0.00 100 1016.7
20260509155023 91 237 4.0 9.0 0.00 0.00 0.00 100 1016.8
20260509154735 89 206 8.0 9.0 0.00 0.00 0.00 100 1016.8
20260509154523 89 206 8.0 9.0 0.00 0.00 0.00 100 1016.8
20260509154235 88 149 4.0 9.0 0.00 0.00 0.00 100 1016.8
20260509154023 88 149 4.0 9.0 0.00 0.00 0.00 100 1016.8
20260509153726 89 158 3.0 11.0 0.00 0.00 0.00 100 1016.8
20260509153523 89 158 3.0 11.0 0.00 0.00 0.00 100 1016.8
20260509153023 90 234 3.0 8.0 0.00 0.00 0.00 100 1016.9
20260509152756 88 206 7.0 9.0 0.00 0.00 0.00 100 1016.9
20260509152523 88 206 7.0 9.0 0.00 0.00 0.00 100 1016.9
20260509152023 89 151 2.0 8.0 0.00 0.00 0.00 100 1017.1
20260509151651 87 181 5.0 7.0 0.00 0.00 0.00 100 1017.1
20260509151523 87 181 5.0 7.0 0.00 0.00 0.00 100 1017.1
20260509151149 87 203 4.0 8.0 0.00 0.00 0.00 100 1017.1
20260509151023 87 203 4.0 8.0 0.00 0.00 0.00 100 1017.1
20260509150813 88 237 4.0 7.0 0.00 0.00 0.00 100 1017.1
20260509150733 88 237 4.0 7.0 0.00 0.00 0.00 100 1017.1
20260509150523 88 237 4.0 7.0 0.00 0.00 0.00 100 1017.1
20260509150334 86 181 4.0 8.0 0.00 0.00 0.00 100 1017.3
20260509150330 87 137 1.0 8.0 0.00 0.00 0.00 100 1017.2
20260509150228 86 181 4.0 8.0 0.00 0.00 0.00 100 1017.3
20260509150023 86 181 4.0 8.0 0.00 0.00 0.00 100 1017.3
20260509145723 87 137 1.0 8.0 0.00 0.00 0.00 100 1017.2
20260509145523 87 137 1.0 8.0 0.00 0.00 0.00 100 1017.2
20260509145023 87 227 3.0 6.0 0.00 0.00 0.00 100 1017.3
20260509144736 86 184 4.0 6.0 0.00 0.00 0.00 100 1017.2
20260509144654 86 184 4.0 6.0 0.00 0.00 0.00 100 1017.2
20260509144523 86 184 4.0 6.0 0.00 0.00 0.00 100 1017.2
20260509144023 87 196 3.0 7.0 0.00 0.00 0.00 100 1017.1
20260509143900 87 230 3.0 7.0 0.00 0.00 0.00 100 1017.1
20260509143523 86 177 4.0 7.0 0.00 0.00 0.00 100 1017.0
20260509143023 87 230 3.0 7.0 0.00 0.00 0.00 100 1017.1
20260509142523 86 178 4.0 6.0 0.00 0.00 0.00 100 1017.0
20260509142248 85 181 3.0 6.0 0.00 0.00 0.00 100 1016.9
20260509142023 85 181 3.0 6.0 0.00 0.00 0.00 100 1016.9
20260509141732 86 163 1.0 6.0 0.00 0.00 0.00 100 1016.9
20260509141523 86 163 1.0 6.0 0.00 0.00 0.00 100 1016.9
20260509141111 84 170 3.0 7.0 0.00 0.00 0.00 100 1016.8
20260509141023 85 146 6.0 8.0 0.00 0.00 0.00 100 1016.8
20260509140523 84 170 3.0 7.0 0.00 0.00 0.00 100 1016.8
20260509140212 85 133 4.0 5.0 0.00 0.00 0.00 100 1016.6
20260509140023 85 144 6.0 6.0 0.00 0.00 0.00 100 1016.7
20260509135740 85 133 4.0 5.0 0.00 0.00 0.00 100 1016.6
20260509135523 85 133 4.0 5.0 0.00 0.00 0.00 100 1016.6
20260509135441 84 59 2.0 6.0 0.00 0.00 0.00 100 1016.7
20260509135023 84 59 2.0 6.0 0.00 0.00 0.00 100 1016.7
20260509134716 84 118 5.0 6.0 0.00 0.00 0.00 100 1016.8
20260509134524 84 118 5.0 6.0 0.00 0.00 0.00 100 1016.8
20260509134024 81 171 3.0 6.0 0.00 0.00 0.00 100 1016.7
20260509133722 81 56 2.0 6.0 0.00 0.00 0.00 100 1016.6
20260509133524 81 149 3.0 6.0 0.00 0.00 0.00 100 1016.6
20260509133024 81 56 2.0 6.0 0.00 0.00 0.00 100 1016.6
20260509132524 81 165 3.0 5.0 0.00 0.00 0.00 100 1016.6
20260509132500 82 126 2.0 6.0 0.00 0.00 0.00 100 1016.6
20260509132024 82 126 2.0 6.0 0.00 0.00 0.00 100 1016.6
20260509131524 84 92 4.0 6.0 0.00 0.00 0.00 100 1016.6
20260509131024 82 81 2.0 4.0 0.00 0.00 0.00 100 1016.6
20260509130524 81 21 0.0 0.0 0.00 0.00 0.00 100 1016.5
20260509130024 80 21 0.0 0.0 0.00 0.00 0.00 100 1016.5
20260509125617 79 21 0.0 0.0 0.00 0.00 0.00 100 1016.5
20260509125605 79 21 0.0 0.0 0.00 0.00 0.00 100 1016.5
20260509125524 79 21 0.0 0.0 0.00 0.00 0.00 100 1016.5
20260509125024 79 21 0.0 0.0 0.00 0.00 0.00 100 1016.5
20260509124747 79 21 0.0 0.0 0.00 0.00 0.00 100 1016.5
20260509124524 79 21 0.0 0.0 0.00 0.00 0.00 100 1016.5
20260509124024 79 21 0.0 0.0 0.00 0.00 0.00 100 1016.5
20260509123524 80 21 0.0 0.0 0.00 0.00 0.00 100 1016.5
20260509123259 81 21 0.0 0.0 0.00 0.00 0.00 100 1016.4
20260509123024 81 21 0.0 0.0 0.00 0.00 0.00 100 1016.4
20260509122809 81 21 0.0 0.0 0.00 0.00 0.00 100 1016.4
20260509122524 81 21 0.0 0.0 0.00 0.00 0.00 100 1016.4
20260509122024 80 21 0.0 0.0 0.00 0.00 0.00 100 1016.4
20260509121524 80 21 0.0 0.0 0.00 0.00 0.00 100 1016.3
20260509121024 80 21 0.0 0.0 0.00 0.00 0.00 100 1016.2
20260509120524 79 21 0.0 1.0 0.00 0.00 0.00 100 1016.0
20260509120024 78 71 0.0 0.0 0.00 0.00 0.00 100 1015.9
20260509115524 78 71 0.0 0.0 0.00 0.00 0.00 100 1016.0
20260509115024 76 71 0.0 0.0 0.00 0.00 0.00 100 1015.8
20260509114648 70 71 0.0 0.0 0.00 0.00 0.00 100 1015.8
20260509114524 75 71 0.0 0.0 0.00 0.00 0.00 100 1015.8
20260509114041 72 71 0.0 0.0 0.00 0.00 0.00 100 1015.8
20260509114024 74 71 0.0 0.0 0.00 0.00 0.00 100 1015.8
20260509113524 72 71 0.0 0.0 0.00 0.00 0.00 100 1015.8
20260509113024 72 71 0.0 0.0 0.00 0.00 0.00 100 1015.8
20260509112524 70 71 0.0 0.0 0.00 0.00 0.00 100 1015.8
20260509112501 68 71 0.0 0.0 0.00 0.00 0.00 100 1015.6
20260509112024 69 71 0.0 0.0 0.00 0.00 0.00 100 1015.7
20260509111813 68 71 0.0 0.0 0.00 0.00 0.00 100 1015.7
20260509111524 68 71 0.0 0.0 0.00 0.00 0.00 100 1015.7
20260509111024 68 71 0.0 0.0 0.00 0.00 0.00 100 1015.6
20260509110524 68 71 0.0 0.0 0.00 0.00 0.00 100 1015.6
20260509110145 67 71 0.0 0.0 0.00 0.00 0.00 100 1015.6
20260509110024 67 71 0.0 0.0 0.00 0.00 0.00 100 1015.6
20260509105524 67 71 0.0 0.0 0.00 0.00 0.00 100 1015.5
20260509105024 67 71 0.0 0.0 0.00 0.00 0.00 100 1015.6
20260509104524 67 71 0.0 0.0 0.00 0.00 0.00 100 1015.5
20260509104458 67 71 0.0 0.0 0.00 0.00 0.00 100 1015.5
20260509104024 67 71 0.0 0.0 0.00 0.00 0.00 100 1015.5
20260509103524 67 71 0.0 0.0 0.00 0.00 0.00 100 1015.4
20260509103225 67 71 0.0 0.0 0.00 0.00 0.00 100 1015.4
20260509103024 67 71 0.0 0.0 0.00 0.00 0.00 100 1015.4
20260509102727 68 71 0.0 0.0 0.00 0.00 0.00 100 1015.6
20260509102524 68 71 0.0 0.0 0.00 0.00 0.00 100 1015.5
20260509102024 68 71 0.0 0.0 0.00 0.00 0.00 100 1015.6
20260509101524 68 71 0.0 0.0 0.00 0.00 0.00 100 1015.6
20260509101024 68 71 0.0 0.0 0.00 0.00 0.00 100 1015.5
20260509100836 68 71 0.0 0.0 0.00 0.00 0.00 100 1015.6
20260509100524 68 71 0.0 0.0 0.00 0.00 0.00 100 1015.6
20260509100024 68 71 0.0 0.0 0.00 0.00 0.00 100 1015.6
20260509100019 68 71 0.0 0.0 0.00 0.00 0.00 100 1015.5
20260509095812 67 71 0.0 0.0 0.00 0.00 0.00 100 1015.6
20260509095524 67 71 0.0 0.0 0.00 0.00 0.00 100 1015.6
20260509095025 68 71 0.0 0.0 0.00 0.00 0.00 100 1015.5
20260509094525 68 71 0.0 0.0 0.00 0.00 0.00 100 1015.5
20260509094502 68 71 0.0 0.0 0.00 0.00 0.00 100 1015.5
20260509094025 68 71 0.0 0.0 0.00 0.00 0.00 100 1015.5
20260509093525 68 71 0.0 0.0 0.00 0.00 0.00 100 1015.5
20260509093025 68 71 0.0 0.0 0.00 0.00 0.00 100 1015.5
20260509092947 68 71 0.0 0.0 0.00 0.00 0.00 100 1015.5
20260509092854 68 71 0.0 0.0 0.00 0.00 0.00 100 1015.5
20260509092525 68 71 0.0 0.0 0.00 0.00 0.00 100 1015.5
20260509092025 68 71 0.0 0.0 0.00 0.00 0.00 100 1015.6
20260509091731 68 71 0.0 0.0 0.00 0.00 0.00 100 1015.7
20260509091525 68 71 0.0 0.0 0.00 0.00 0.00 100 1015.7
20260509091025 68 71 0.0 0.0 0.00 0.00 0.00 100 1015.7
20260509090525 68 71 0.0 0.0 0.00 0.00 0.00 100 1015.6
20260509090025 68 71 0.0 0.0 0.00 0.00 0.00 100 1015.6
20260509085525 68 71 0.0 0.0 0.00 0.00 0.00 100 1015.5
20260509085025 68 71 0.0 0.0 0.00 0.00 0.00 100 1015.7
20260509084525 68 71 0.0 0.0 0.00 0.00 0.00 100 1015.6
20260509084025 69 71 0.0 0.0 0.00 0.00 0.00 100 1015.6
20260509083525 69 71 0.0 0.0 0.00 0.00 0.00 100 1015.7
20260509083025 69 71 0.0 0.0 0.00 0.00 0.00 100 1015.6
20260509082525 69 71 0.0 0.0 0.00 0.00 0.00 100 1015.8
20260509082025 69 71 0.0 0.0 0.00 0.00 0.00 100 1015.8
20260509081525 69 71 0.0 0.0 0.00 0.00 0.00 100 1015.9
20260509081025 69 71 0.0 0.0 0.00 0.00 0.00 100 1015.9
20260509080721 69 71 0.0 0.0 0.00 0.00 0.00 100 1015.9
20260509080525 69 71 0.0 0.0 0.00 0.00 0.00 100 1015.9
20260509080025 69 71 0.0 0.0 0.00 0.00 0.00 100 1015.9
20260509075525 70 71 0.0 2.0 0.00 0.00 0.00 100 1016.1
20260509075025 69 19 0.0 0.0 0.00 0.00 0.00 100 1016.1
20260509074525 69 19 0.0 0.0 0.00 0.00 0.00 100 1016.1
20260509074025 70 19 0.0 0.0 0.00 0.00 0.00 100 1016.1
20260509073808 70 19 0.0 0.0 0.00 0.00 0.00 100 1016.2
20260509073525 70 19 0.0 0.0 0.00 0.00 0.00 100 1016.2
20260509073025 70 19 0.0 0.0 0.00 0.00 0.00 100 1016.2
20260509072525 71 19 0.0 0.0 0.00 0.00 0.00 100 1016.1
20260509072203 72 9 0.0 1.0 0.00 0.00 0.00 100 1016.4
20260509072025 72 19 0.0 0.0 0.00 0.00 0.00 100 1016.1
20260509071525 72 19 0.0 1.0 0.00 0.00 0.00 100 1016.3
20260509071025 72 9 0.0 0.0 0.00 0.00 0.00 100 1016.3
20260509070525 72 9 0.0 1.0 0.00 0.00 0.00 100 1016.4
20260509070025 72 9 1.0 4.0 0.00 0.00 0.00 100 1016.4
20260509065525 72 355 0.0 0.0 0.00 0.00 0.00 100 1016.5
20260509065353 72 355 0.0 0.0 0.00 0.00 0.00 100 1016.6
20260509065317 72 355 0.0 0.0 0.00 0.00 0.00 100 1016.6
20260509065028 71 355 0.0 3.0 0.00 0.00 0.00 100 1016.6
20260509065025 72 355 0.0 0.0 0.00 0.00 0.00 100 1016.6
20260509064745 71 355 0.0 3.0 0.00 0.00 0.00 100 1016.6
20260509064525 71 355 0.0 3.0 0.00 0.00 0.00 100 1016.6
20260509064255 71 45 0.0 0.0 0.00 0.00 0.00 100 1016.8
20260509064025 70 45 0.0 0.0 0.00 0.00 0.00 100 1016.6
20260509063815 70 45 0.0 0.0 0.00 0.00 0.00 100 1016.7
20260509063525 70 45 0.0 0.0 0.00 0.00 0.00 100 1016.7
20260509063218 70 45 0.0 0.0 0.00 0.00 0.00 100 1016.8
20260509063025 70 45 0.0 0.0 0.00 0.00 0.00 100 1016.8
20260509062525 71 45 0.0 0.0 0.00 0.00 0.00 100 1016.8
20260509062207 71 45 0.0 0.0 0.00 0.00 0.00 100 1017.0
20260509062025 71 45 0.0 0.0 0.00 0.00 0.00 100 1016.8
20260509061525 71 45 0.0 0.0 0.00 0.00 0.00 100 1017.0
20260509061025 71 45 0.0 0.0 0.00 0.00 0.00 100 1017.0
20260509060827 72 45 0.0 0.0 0.00 0.00 0.00 100 1017.0
20260509060525 72 45 0.0 0.0 0.00 0.00 0.00 100 1017.0
20260509060025 72 45 0.0 0.0 0.00 0.00 0.00 100 1017.0
20260509055716 72 45 0.0 0.0 0.00 0.00 0.00 100 1017.2
20260509055608 72 45 0.0 0.0 0.00 0.00 0.00 100 1017.2
20260509055530 73 45 0.0 0.0 0.00 0.00 0.00 100 1017.1
20260509055525 72 45 0.0 0.0 0.00 0.00 0.00 100 1017.2
20260509055331 73 45 0.0 0.0 0.00 0.00 0.00 100 1017.4
20260509055026 73 45 0.0 0.0 0.00 0.00 0.00 100 1017.1
20260509054803 73 45 0.0 0.0 0.00 0.00 0.00 100 1017.2
20260509054526 73 45 0.0 0.0 0.00 0.00 0.00 100 1017.2
20260509054026 73 45 0.0 0.0 0.00 0.00 0.00 100 1017.3
20260509053526 73 45 0.0 0.0 0.00 0.00 0.00 100 1017.4
20260509053026 74 45 0.0 0.0 0.00 0.00 0.00 100 1017.4
20260509052526 74 45 0.0 0.0 0.00 0.00 0.00 100 1017.4
20260509052158 74 45 0.0 0.0 0.00 0.00 0.00 100 1017.4
20260509052026 74 45 0.0 0.0 0.00 0.00 0.00 100 1017.4
20260509051526 74 45 0.0 0.0 0.00 0.00 0.00 100 1017.5
20260509051026 75 45 0.0 4.0 0.00 0.00 0.00 100 1017.5
20260509050526 74 53 1.0 2.0 0.00 0.00 0.00 100 1017.6
20260509050130 74 18 0.0 0.0 0.00 0.00 0.00 100 1017.6
20260509050026 74 18 0.0 0.0 0.00 0.00 0.00 100 1017.6
20260509045526 75 18 0.0 0.0 0.00 0.00 0.00 100 1017.6
20260509045130 75 18 0.0 0.0 0.00 0.00 0.00 100 1017.6
20260509045026 75 18 0.0 0.0 0.00 0.00 0.00 100 1017.6
20260509044652 75 18 0.0 1.0 0.00 0.00 0.00 100 1017.7
20260509044526 75 18 0.0 1.0 0.00 0.00 0.00 100 1017.7
20260509044026 75 21 0.0 3.0 0.00 0.00 0.00 100 1017.8
20260509043526 76 61 0.0 0.0 0.00 0.00 0.00 100 1017.9
20260509043026 76 61 0.0 4.0 0.00 0.00 0.00 100 1018.0
20260509042526 77 47 0.0 4.0 0.00 0.00 0.00 100 1018.0
20260509042215 76 68 3.0 5.0 0.00 0.00 0.00 100 1017.9
20260509042026 76 68 3.0 5.0 0.00 0.00 0.00 100 1017.9
20260509041526 77 88 3.0 4.0 0.00 0.00 0.00 100 1017.9
20260509041351 77 2 2.0 8.0 0.00 0.00 0.00 100 1017.7
20260509041026 77 18 0.0 4.0 0.00 0.00 0.00 100 1017.8
20260509040526 77 33 2.0 5.0 0.00 0.00 0.00 100 1017.7
20260509040026 77 2 2.0 8.0 0.00 0.00 0.00 100 1017.7
20260509035724 77 16 2.0 7.0 0.00 0.00 0.00 100 1017.6
20260509035526 77 16 2.0 7.0 0.00 0.00 0.00 100 1017.6
20260509035026 77 19 3.0 9.0 0.00 0.00 0.00 100 1017.7
20260509034526 77 358 7.0 8.0 0.00 0.00 0.00 100 1017.7
20260509034026 77 351 4.0 8.0 0.00 0.00 0.00 100 1017.7
20260509033802 78 340 4.0 9.0 0.00 0.00 0.00 100 1017.6
20260509033613 78 351 6.0 9.0 0.00 0.00 0.00 100 1017.6
20260509033526 78 340 4.0 9.0 0.00 0.00 0.00 100 1017.6
20260509033026 78 351 6.0 9.0 0.00 0.00 0.00 100 1017.6
20260509032526 78 29 1.0 10.0 0.00 0.00 0.00 100 1017.6
20260509032401 78 1 5.0 10.0 0.00 0.00 0.00 100 1017.5
20260509032026 78 1 5.0 10.0 0.00 0.00 0.00 100 1017.5
20260509031741 78 334 5.0 11.0 0.00 0.00 0.00 100 1017.6
20260509031526 78 334 5.0 11.0 0.00 0.00 0.00 100 1017.6
20260509031519 78 347 11.0 11.0 0.00 0.00 0.00 100 1017.6
20260509031026 78 347 11.0 11.0 0.00 0.00 0.00 100 1017.6
20260509030526 78 338 5.0 8.0 0.00 0.00 0.00 100 1017.6
20260509030026 78 7 3.0 8.0 0.00 0.00 0.00 100 1017.5
20260509025658 78 324 1.0 8.0 0.00 0.00 0.00 100 1017.3
20260509025526 77 25 1.0 9.0 0.00 0.00 0.00 100 1017.5
20260509025026 77 329 5.0 7.0 0.00 0.00 0.00 100 1017.5
20260509024526 78 16 0.0 7.0 0.00 0.00 0.00 100 1017.5
20260509024501 78 1 3.0 8.0 0.00 0.00 0.00 100 1017.5
20260509024026 78 1 3.0 8.0 0.00 0.00 0.00 100 1017.5
20260509023526 78 18 4.0 8.0 0.00 0.00 0.00 100 1017.4
20260509023026 78 324 1.0 8.0 0.00 0.00 0.00 100 1017.3
20260509022526 78 4 4.0 9.0 0.00 0.00 0.00 100 1017.2
20260509022026 78 338 4.0 8.0 0.00 0.00 0.00 100 1017.1
20260509021526 78 316 4.0 8.0 0.00 0.00 0.00 100 1017.0
20260509021026 78 330 3.0 6.0 0.00 0.00 0.00 100 1017.0
20260509020714 78 336 4.0 10.0 0.00 0.00 0.00 100 1017.0
20260509020526 78 336 4.0 10.0 0.00 0.00 0.00 100 1017.0
20260509020026 78 317 2.0 8.0 0.00 0.00 0.00 100 1016.9
20260509015709 78 326 7.0 8.0 0.00 0.00 0.00 100 1016.9
20260509015527 78 326 7.0 8.0 0.00 0.00 0.00 100 1016.9
20260509015027 78 2 0.0 9.0 0.00 0.00 0.00 100 1016.8
20260509014527 78 344 1.0 7.0 0.00 0.00 0.00 100 1016.7
20260509014153 78 351 2.0 7.0 0.00 0.00 0.00 100 1016.7
20260509014027 78 351 2.0 7.0 0.00 0.00 0.00 100 1016.7
20260509013527 78 312 6.0 9.0 0.00 0.00 0.00 100 1016.6
20260509013525 79 291 2.0 8.0 0.00 0.00 0.00 100 1016.7
20260509013027 79 291 2.0 8.0 0.00 0.00 0.00 100 1016.7
20260509012742 80 350 2.0 8.0 0.00 0.00 0.00 100 1016.5
20260509012527 79 305 3.0 8.0 0.00 0.00 0.00 100 1016.6
20260509012027 79 344 2.0 7.0 0.00 0.00 0.00 100 1016.6
20260509011658 79 327 7.0 7.0 0.00 0.00 0.00 100 1016.6
20260509011527 79 327 7.0 7.0 0.00 0.00 0.00 100 1016.6
20260509011027 79 322 5.0 8.0 0.00 0.00 0.00 100 1016.5
20260509010634 80 350 2.0 8.0 0.00 0.00 0.00 100 1016.5
20260509010527 80 350 2.0 8.0 0.00 0.00 0.00 100 1016.5
20260509010508 80 323 7.0 9.0 0.00 0.00 0.00 100 1016.3
20260509010027 80 347 3.0 7.0 0.00 0.00 0.00 100 1016.4
20260509005527 80 323 7.0 9.0 0.00 0.00 0.00 100 1016.3
20260509005505 80 15 2.0 7.0 0.00 0.00 0.00 100 1016.1
20260509005122 80 15 2.0 7.0 0.00 0.00 0.00 100 1016.1
20260509005027 80 15 2.0 7.0 0.00 0.00 0.00 100 1016.1
20260509004724 81 309 1.0 8.0 0.00 0.00 0.00 100 1016.0
20260509004527 81 309 1.0 8.0 0.00 0.00 0.00 100 1016.0
20260509004215 81 355 5.0 10.0 0.00 0.00 0.00 100 1016.0
20260509004027 81 355 5.0 10.0 0.00 0.00 0.00 100 1016.0
20260509003607 83 322 2.0 5.0 0.00 0.00 0.00 100 1015.5
20260509003527 81 316 4.0 8.0 0.00 0.00 0.00 100 1015.9
20260509003522 83 322 2.0 5.0 0.00 0.00 0.00 100 1015.5
20260509003143 81 317 3.0 7.0 0.00 0.00 0.00 100 1015.9
20260509003027 81 317 3.0 7.0 0.00 0.00 0.00 100 1015.9
20260509002701 81 1 2.0 5.0 0.00 0.00 0.00 100 1015.8
20260509002527 81 1 2.0 5.0 0.00 0.00 0.00 100 1015.8
20260509002143 82 2 1.0 6.0 0.00 0.00 0.00 100 1015.7
20260509002027 82 2 1.0 6.0 0.00 0.00 0.00 100 1015.7
20260509001527 82 302 4.0 4.0 0.00 0.00 0.00 100 1015.7
20260509001027 83 296 0.0 3.0 0.00 0.00 0.00 100 1015.6
20260509000619 83 322 2.0 5.0 0.00 0.00 0.00 100 1015.5
20260509000527 83 322 2.0 5.0 0.00 0.00 0.00 100 1015.5
20260509000214 83 271 0.0 2.0 0.00 0.00 0.00 100 1015.4
20260509000117 83 271 0.0 2.0 0.00 0.00 0.00 100 1015.4
20260509000027 83 271 0.0 2.0 0.00 0.00 0.00 100 1015.4
20260508235527 84 330 0.0 1.0 0.00 0.00 0.00 100 1015.4
20260508235027 85 306 0.0 3.0 0.00 0.00 0.00 100 1015.4
20260508234527 85 7 0.0 3.0 0.00 0.00 0.00 100 1015.3
20260508234140 86 296 0.0 4.0 0.00 0.00 0.00 100 1015.1
20260508234027 85 315 1.0 5.0 0.00 0.00 0.00 100 1015.2
20260508233701 86 296 0.0 4.0 0.00 0.00 0.00 100 1015.1
20260508233527 86 296 0.0 4.0 0.00 0.00 0.00 100 1015.1
20260508233148 86 293 3.0 8.0 0.00 0.00 0.00 100 1015.1
20260508233027 86 293 3.0 8.0 0.00 0.00 0.00 100 1015.1
20260508232527 86 312 5.0 11.0 0.00 0.00 0.00 100 1015.0
20260508232159 87 307 5.0 14.0 0.00 0.00 0.00 100 1015.0
20260508232027 87 307 5.0 14.0 0.00 0.00 0.00 100 1015.0
20260508231709 87 40 2.0 6.0 0.00 0.00 0.00 100 1014.9
20260508231618 87 40 2.0 6.0 0.00 0.00 0.00 100 1014.9
20260508231527 87 40 2.0 6.0 0.00 0.00 0.00 100 1014.9
20260508231245 87 320 3.0 13.0 0.00 0.00 0.00 100 1014.9
20260508231027 87 320 3.0 13.0 0.00 0.00 0.00 100 1014.9